TimeEST,TemperatureF,Dew PointF,Humidity,Sea Level PressureIn,VisibilityMPH,Wind Direction,Wind SpeedMPH,Gust SpeedMPH,PrecipitationIn,Events,Conditions,WindDirDegrees,DateUTC
12:54 AM,25.0,19.9,81,29.78,10.0,North,9.2,-,N/A,,Overcast,350,2010-02-13 05:54:00
1:54 AM,25.0,19.9,81,29.78,10.0,North,11.5,-,N/A,,Overcast,350,2010-02-13 06:54:00
2:29 AM,24.8,19.4,80,29.74,10.0,North,12.7,-,N/A,,Overcast,350,2010-02-13 07:29:00
2:54 AM,25.0,19.0,78,29.77,10.0,North,8.1,-,N/A,,Overcast,350,2010-02-13 07:54:00
3:54 AM,23.0,18.0,81,29.76,10.0,NNW,16.1,21.9,N/A,,Scattered Clouds,340,2010-02-13 08:54:00
4:51 AM,23.0,17.6,80,29.73,10.0,North,17.3,23.0,N/A,,Mostly Cloudy,350,2010-02-13 09:51:00
4:54 AM,23.0,17.1,78,29.78,10.0,North,16.1,24.2,N/A,,Mostly Cloudy,350,2010-02-13 09:54:00
5:22 AM,21.2,15.8,80,29.73,10.0,North,15.0,21.9,N/A,,Partly Cloudy,350,2010-02-13 10:22:00
5:54 AM,21.9,15.1,75,29.79,10.0,North,9.2,18.4,N/A,,Clear,360,2010-02-13 10:54:00
6:54 AM,21.0,15.1,78,29.80,10.0,North,16.1,23.0,N/A,,Clear,350,2010-02-13 11:54:00
7:54 AM,19.9,14.0,78,29.83,10.0,North,13.8,-,N/A,,Clear,350,2010-02-13 12:54:00
8:54 AM,21.9,14.0,72,29.86,10.0,North,16.1,-,N/A,,Clear,350,2010-02-13 13:54:00
9:54 AM,25.0,14.0,63,29.87,10.0,North,16.1,-,N/A,,Overcast,350,2010-02-13 14:54:00
10:54 AM,26.1,16.0,66,29.88,10.0,North,13.8,20.7,N/A,,Overcast,360,2010-02-13 15:54:00
11:37 AM,26.6,15.8,64,29.83,10.0,North,13.8,25.3,0.00,,Overcast,350,2010-02-13 16:37:00
11:54 AM,27.0,17.1,66,29.87,10.0,North,16.1,23.0,0.00,,Overcast,350,2010-02-13 16:54:00
12:54 PM,28.9,17.1,61,29.86,10.0,North,15.0,23.0,N/A,,Overcast,360,2010-02-13 17:54:00
1:54 PM,28.9,17.1,61,29.85,10.0,North,18.4,26.5,N/A,,Clear,350,2010-02-13 18:54:00
2:54 PM,30.0,17.1,59,29.85,10.0,North,13.8,-,N/A,,Clear,350,2010-02-13 19:54:00
3:54 PM,30.0,17.1,59,29.86,10.0,North,13.8,19.6,N/A,,Partly Cloudy,350,2010-02-13 20:54:00
4:54 PM,30.0,16.0,56,29.87,10.0,North,12.7,24.2,N/A,,Clear,350,2010-02-13 21:54:00
5:54 PM,28.0,17.1,63,29.88,10.0,North,8.1,17.3,N/A,,Clear,10,2010-02-13 22:54:00
6:54 PM,26.1,19.0,75,29.90,10.0,NNW,11.5,-,N/A,,Clear,340,2010-02-13 23:54:00
7:54 PM,25.0,19.0,78,29.91,10.0,NNW,5.8,-,N/A,,Clear,340,2010-02-14 00:54:00
8:54 PM,25.0,19.9,81,29.92,10.0,North,5.8,-,N/A,,Overcast,350,2010-02-14 01:54:00
9:52 PM,24.8,19.4,80,29.87,10.0,NNW,12.7,-,N/A,,Overcast,330,2010-02-14 02:52:00
9:54 PM,24.1,19.0,81,29.92,10.0,NNW,11.5,-,N/A,,Overcast,340,2010-02-14 02:54:00
10:12 PM,24.8,19.4,80,29.88,10.0,NNW,8.1,-,N/A,,Scattered Clouds,340,2010-02-14 03:12:00
10:54 PM,24.1,18.0,77,29.92,10.0,NNW,8.1,-,N/A,,Clear,340,2010-02-14 03:54:00
11:54 PM,24.1,17.1,75,29.90,10.0,North,9.2,-,N/A,,Clear,350,2010-02-14 04:54:00